Date String (YYYY-MM-DD hh:mm:ss) UTC,Instrument flags,absolute air pressure of the measurement (hPa),sample flow rate (lpm),inlet stack bypass flow (lpm),air temperature of the measurement (°C),ambient temperature measured by the external sensor (°C),aerosol sample conditioner tube jacket temperature (°C),OPC LED temperature (°C),internal box temperature (°C),relative humidity of the measurement (%),span deviation,mass concentration of particles derived from Lorenz-Mie calculation of OPC scattering (μg/m³),mass concentration of particles derived from Lorenz-Mie calculation of OPC scattering (μg/m³),mass concentration of particles derived from Lorenz-Mie calculation of OPC scattering (μg/m³)
DateTimeUTC,F1_M11,P_M11,Q1_M11,Q2_M11,T1_M11,T2_M11,T3_M11,T4_M11,T5_M11,U1_M11,ZSPAN_M11,X0_M11,X2_M11,X1_M11
2023-08-27 01:00:00,SystemResetWarning,0836.6,5.01,000.00,030.5,027.2,000.0,038.1,030.7,33.1,0001.3,0009.22,0006.38,0006.19
2023-08-27 01:01:00,SystemResetWarning,0836.6,4.98,000.00,030.5,025.9,000.0,038.0,030.4,32.9,0001.0,0009.24,0006.39,0006.21
2023-08-27 01:02:00,SystemResetWarning,0836.7,5.01,000.00,030.4,024.4,000.0,037.9,030.1,32.9,0001.2,0009.30,0006.43,0006.23
2023-08-27 01:03:00,SystemResetWarning,0836.6,5.01,000.00,030.3,024.1,000.0,037.9,029.8,33.0,0000.6,0009.42,0006.44,0006.24
2023-08-27 01:04:00,SystemResetWarning,0836.6,5.01,000.00,030.1,024.3,000.0,037.9,029.6,33.4,-000.5,0009.61,0006.43,0006.23
2023-08-27 01:05:00,SystemResetWarning,0836.6,5.00,000.00,030.0,024.7,000.0,038.0,029.8,33.7,-000.4,0009.58,0006.43,0006.23
2023-08-27 01:06:00,SystemResetWarning,0836.6,5.00,000.00,029.9,025.2,000.0,038.0,029.9,33.9,-000.7,0009.62,0006.46,0006.25
2023-08-27 01:07:00,SystemResetWarning,0836.6,5.00,000.00,029.9,025.7,000.0,038.0,030.0,34.0,-000.5,0009.59,0006.46,0006.25
2023-08-27 01:08:00,SystemResetWarning,0836.6,5.01,000.00,029.8,026.0,000.0,038.0,030.1,34.2,-000.4,0009.55,0006.44,0006.24
2023-08-27 01:09:00,SystemResetWarning,0836.6,5.00,000.00,029.8,026.4,000.0,038.0,030.2,34.7,-000.3,0009.59,0006.46,0006.25
2023-08-27 01:10:00,SystemResetWarning,0836.6,5.00,000.00,029.8,026.6,000.0,038.0,030.3,34.4,-000.5,0009.62,0006.48,0006.25
2023-08-27 01:11:00,SystemResetWarning,0836.6,4.99,000.00,029.8,026.9,000.0,038.0,030.4,34.3,-000.1,0008.98,0006.46,0006.24
2023-08-27 01:12:00,SystemResetWarning,0836.6,5.00,000.00,029.8,027.1,000.0,038.0,030.4,34.4,0000.5,0008.96,0006.45,0006.23
2023-08-27 01:13:00,SystemResetWarning,0836.5,5.00,000.00,029.8,027.2,000.0,038.1,030.5,34.5,0000.6,0008.99,0006.44,0006.23
2023-08-27 01:14:00,SystemResetWarning,0836.5,4.99,000.00,029.8,026.3,000.0,037.9,030.4,34.5,0000.6,0008.86,0006.44,0006.22
2023-08-27 01:15:00,SystemResetWarning,0836.5,5.00,000.00,029.7,024.7,000.0,037.8,030.1,34.6,0001.7,0008.69,0006.45,0006.23
2023-08-27 01:16:00,SystemResetWarning,0836.4,4.99,000.00,029.6,024.0,000.0,037.7,029.8,35.2,0001.6,0008.77,0006.48,0006.25
2023-08-27 01:17:00,SystemResetWarning,0836.4,5.04,000.00,029.6,024.1,000.0,037.6,029.7,36.7,0001.6,0008.92,0006.47,0006.25
2023-08-27 01:18:00,SystemResetWarning,0836.4,4.98,000.00,029.7,024.5,000.0,037.7,029.8,38.2,0001.2,0009.26,0006.48,0006.25
2023-08-27 01:19:00,SystemResetWarning,0836.5,4.99,000.00,030.0,025.0,000.0,037.7,030.1,37.9,0001.0,0009.34,0006.52,0006.27
2023-08-27 01:20:00,SystemResetWarning,0836.5,5.01,000.00,030.4,025.4,000.0,037.7,030.3,36.8,0000.7,0009.45,0006.51,0006.26
2023-08-27 01:21:00,SystemResetWarning,0836.5,5.01,000.00,030.8,025.9,000.0,037.8,030.5,35.5,0000.7,0009.48,0006.49,0006.25
2023-08-27 01:22:00,SystemResetWarning,0836.6,4.98,000.00,031.2,026.2,000.0,037.9,030.7,34.7,0000.5,0009.46,0006.50,0006.26
2023-08-27 01:23:00,SystemResetWarning,0836.6,4.99,000.00,031.4,026.5,000.0,038.0,030.8,34.1,0000.1,0009.47,0006.53,0006.29
2023-08-27 01:24:00,SystemResetWarning,0836.6,5.02,000.00,031.6,026.8,000.0,038.2,030.8,33.0,-000.2,0009.51,0006.56,0006.30
2023-08-27 01:25:00,SystemResetWarning,0836.6,5.00,000.00,031.7,027.0,000.0,038.4,030.8,32.7,-000.6,0009.43,0006.53,0006.29
2023-08-27 01:26:00,SystemResetWarning,0836.6,5.00,000.00,031.7,027.2,000.0,038.5,030.9,32.1,-001.0,0009.74,0006.52,0006.27
2023-08-27 01:27:00,SystemResetWarning,0836.6,4.99,000.00,031.8,026.9,000.0,038.6,030.8,33.0,-000.8,0010.12,0006.52,0006.26
2023-08-27 01:28:00,SystemResetWarning,0836.5,4.99,000.00,031.8,025.2,000.0,038.6,030.6,33.3,-000.4,0010.01,0006.50,0006.24
2023-08-27 01:29:00,SystemResetWarning,0836.5,5.00,000.00,031.7,024.1,000.0,038.5,030.4,32.8,-000.2,0009.59,0006.48,0006.22
2023-08-27 01:30:00,SystemResetWarning,0836.5,5.01,000.00,031.6,024.0,000.0,038.6,030.1,32.8,-000.5,0009.63,0006.47,0006.22
2023-08-27 01:31:00,SystemResetWarning,0836.5,4.99,000.00,031.3,024.4,000.0,038.7,030.0,32.9,-000.4,0009.54,0006.47,0006.21
2023-08-27 01:32:00,SystemResetWarning,0836.5,5.00,000.00,031.2,024.9,000.0,038.8,030.1,33.4,0000.1,0009.49,0006.47,0006.20
2023-08-27 01:33:00,SystemResetWarning,0836.5,5.01,000.00,031.1,025.3,000.0,038.8,030.3,33.3,-000.1,0010.06,0006.47,0006.19
2023-08-27 01:34:00,SystemResetWarning,0836.5,5.00,000.00,031.0,025.8,000.0,038.9,030.4,33.3,0000.6,0010.17,0006.45,0006.16
2023-08-27 01:35:00,SystemResetWarning,0836.5,5.00,000.00,031.0,026.1,000.0,038.9,030.4,33.7,0000.7,0010.12,0006.43,0006.14
2023-08-27 01:36:00,SystemResetWarning,0836.5,5.00,000.00,031.0,026.5,000.0,038.9,030.5,33.8,0000.9,0010.17,0006.45,0006.14
2023-08-27 01:37:00,SystemResetWarning,0836.5,5.00,000.00,030.9,026.7,000.0,038.9,030.6,33.8,0001.0,0010.21,0006.48,0006.15
2023-08-27 01:38:00,SystemResetWarning,0836.5,5.00,000.00,030.9,026.9,000.0,038.9,030.6,34.4,0000.5,0009.47,0006.47,0006.16
2023-08-27 01:39:00,SystemResetWarning,0836.4,4.98,000.00,030.9,027.1,000.0,038.9,030.7,35.1,-000.1,0009.48,0006.48,0006.16
2023-08-27 01:40:00,SystemResetWarning,0836.5,5.02,000.00,031.0,027.3,000.0,038.9,030.8,34.4,0000.5,0009.46,0006.48,0006.18
2023-08-27 01:41:00,SystemResetWarning,0836.5,4.98,000.00,031.0,026.8,000.0,038.8,030.8,34.0,0000.1,0009.99,0006.49,0006.18
2023-08-27 01:42:00,SystemResetWarning,0836.5,5.01,000.00,031.1,025.0,000.0,038.7,030.5,33.9,0000.6,0010.24,0006.51,0006.20
2023-08-27 01:43:00,SystemResetWarning,0836.4,4.99,000.00,031.0,024.1,000.0,038.5,030.3,34.2,0000.9,0010.43,0006.52,0006.21
2023-08-27 01:44:00,SystemResetWarning,0836.4,5.00,000.00,030.8,024.1,000.0,038.5,030.0,34.7,0001.0,0010.51,0006.53,0006.23
2023-08-27 01:45:00,SystemResetWarning,0836.4,5.01,000.00,030.6,024.4,000.0,038.6,030.0,35.2,0000.9,0010.09,0006.53,0006.24
2023-08-27 01:46:00,SystemResetWarning,0836.4,5.01,000.00,030.7,024.9,000.0,038.6,030.2,35.2,0000.6,0010.09,0006.54,0006.25
2023-08-27 01:47:00,SystemResetWarning,0836.5,4.99,000.00,031.0,025.4,000.0,038.6,030.4,35.2,0000.4,0010.00,0006.50,0006.25
2023-08-27 01:48:00,SystemResetWarning,0836.5,5.00,000.00,031.2,025.8,000.0,038.6,030.6,34.7,0000.3,0009.97,0006.49,0006.25
2023-08-27 01:49:00,SystemResetWarning,0836.5,4.99,000.00,031.4,026.1,000.0,038.7,030.7,33.7,0000.6,0009.93,0006.47,0006.24
2023-08-27 01:50:00,SystemResetWarning,0836.6,5.01,000.00,031.5,026.4,000.0,038.7,030.7,33.4,0000.9,0009.92,0006.48,0006.26
2023-08-27 01:51:00,SystemResetWarning,0836.6,5.00,000.00,031.5,026.7,000.0,038.8,030.8,33.0,0000.9,0009.96,0006.50,0006.28
2023-08-27 01:52:00,SystemResetWarning,0836.6,5.00,000.00,031.5,026.9,000.0,038.9,030.8,32.9,0001.7,0009.62,0006.51,0006.29
2023-08-27 01:53:00,SystemResetWarning,0836.6,5.00,000.00,031.6,027.1,000.0,039.0,030.9,32.4,0001.6,0009.33,0006.51,0006.27
2023-08-27 01:54:00,SystemResetWarning,0836.6,5.00,000.00,031.5,027.3,000.0,039.1,030.9,32.0,0000.0,0009.11,0006.49,0006.25
2023-08-27 01:55:00,SystemResetWarning,0836.6,5.00,000.00,031.5,027.2,000.0,039.1,030.9,31.8,0000.0,0008.89,0006.45,0006.22
2023-08-27 01:56:00,SystemResetWarning,0836.6,4.98,000.00,031.5,025.8,000.0,039.0,030.8,31.8,0000.0,0008.82,0006.41,0006.18
2023-08-27 01:57:00,SystemResetWarning,0836.6,5.01,000.00,031.5,024.3,000.0,038.9,030.4,32.0,0000.0,0008.78,0006.37,0006.13
2023-08-27 01:58:00,SystemResetWarning,0836.6,5.01,000.00,031.3,024.0,000.0,038.8,030.3,32.3,0000.0,0008.78,0006.34,0006.10
2023-08-27 01:59:00,SystemResetWarning,0836.6,5.01,000.00,031.1,024.3,000.0,038.9,030.1,32.8,0000.0,0008.73,0006.30,0006.08
